Location: Caribou
(46.8667°N, 68.0167°W)
Time: 19:09:20
(UTC-05:00)

Daily predictions for brighter satellites

Satellite Brightness Start Highest point End
(mag) Time Altitude Azimuth Time Altitude Azimuth Time Altitude Azimuth
COSMOS 2455 3.2 16:13:58 10° S 16:19:40 47° ESE 16:25:25 10° NE
Cosmos 1346 Rocket 4.2 16:16:00 10° SW 16:19:41 40° WNW 16:23:26 10° N
Cosmos 2242 Rocket 3.9 16:17:34 10° SSE 16:21:58 51° E 16:26:21 10° NNE
SL-23 DEB 4.4 16:19:06 10° WNW 16:22:24 44° N 16:27:13 10° ENE
Cosmos 1862 Rocket 4.1 16:20:05 10° SSE 16:24:14 41° E 16:28:27 10° NNE
ERBS 2.8 16:20:59 10° WNW 16:24:21 64° SW 16:27:43 10° SE
Cosmos 1802 Rocket 4.1 16:19:01 10° S 16:25:11 84° W 16:31:22 10° N
AQUARIUS 4.5 16:22:14 10° SE 16:26:29 44° ENE 16:30:47 10° N
SMAP 3.3 16:22:22 10° SE 16:26:48 46° ENE 16:31:15 10° N
Cosmos 468 Rocket 4.1 16:23:56 10° NNW 16:29:09 88° WSW 16:34:18 10° SSE
CZ-4C R/B 3.6 16:25:01 10° NNW 16:30:53 30° NNE 16:37:25 10° E
Meteor 1-28 Rocket 4.3 16:29:28 10° NE 16:32:35 25° E 16:35:41 10° SSE
CZ-4 R/B 1.8 16:30:42 10° SE 16:34:15 36° ENE 16:37:48 10° N
Cosmos 1933 3.3 16:31:02 10° S 16:35:04 83° E 16:39:07 10° N
Cosmos 1816 Rocket 4.4 16:29:23 10° N 16:35:32 70° E 16:41:39 10° SSE
IRAS Rocket 4.4 16:34:21 10° SSE 16:39:54 85° WSW 16:45:27 10° NNW
Cosmos 1606 4.1 16:38:08 10° SE 16:40:44 18° E 16:43:21 10° NE
Cosmos 1484 Rocket 2.8 16:39:05 10° SSE 16:42:55 64° ENE 16:46:50 10° N
Cosmos 1725 Rocket 4.0 16:39:24 10° S 16:45:42 86° E 16:52:00 10° N
Meteor 2-10 Rocket 4.1 16:41:58 10° SSW 16:47:10 64° WNW 16:52:39 10° N
Cosmos 1763 Rocket 3.4 16:42:22 10° NNW 16:47:38 81° ENE 16:52:47 10° SSE
Cosmos 2082 Rocket 2.6 16:43:40 10° NNW 16:49:02 40° NE 16:54:20 10° ESE
CSL-04 Rocket 3.7 16:45:20 10° SSE 16:50:38 85° WSW 16:56:02 10° NNW
ATLAS 3B R/B 4.2 16:46:25 10° W 16:52:17 26° NNW 16:57:58 10° NNE
CZ-2C R/B 3.9 16:47:41 10° S 16:52:26 44° W 16:57:22 10° NNW
SJ-7 4.4 16:48:25 10° SSE 16:52:35 89° WSW 16:56:43 10° NNW
Cosmos 1782 Rocket 4.2 16:48:53 10° N 16:52:46 31° ENE 16:56:39 10° SE
Meteor 1-20 Rocket 4.3 16:47:29 10° N 16:52:57 54° ENE 16:58:19 10° SSE
Meteor 1-25 Rocket 4.3 16:47:23 10° N 16:53:12 61° ENE 16:58:56 10° SSE
METEOR-M 4.4 16:51:45 10° SE 16:56:49 46° ENE 17:01:54 10° N
COSMO-SKYMED 1 3.5 16:55:16 10° NE 16:58:59 27° E 17:02:41 10° SSE
USA 116 4.2 16:54:43 10° NNE 16:59:08 46° E 17:03:00 10° S
Cosmos 1340 3.7 16:57:36 10° SSW 17:01:16 48° WNW 17:04:57 10° N
Tsikada Rocket 4.4 16:55:36 10° NNW 17:01:43 69° W 17:07:50 10° S
Cosmos 1814 Rocket 4.4 16:56:53 10° NNW 17:02:14 71° WSW 17:07:34 10° SSE
YAOGAN 1 2.6 16:58:04 10° SSE 17:02:17 55° ENE 17:06:33 10° N
Cosmos 1782 3.5 17:01:32 10° SSE 17:05:09 33° E 17:08:37 11° NNE
BREEZE-M DEB (TANK) 1.9 17:04:46 10° WNW 17:06:48 50° N 17:08:36 22° ENE
SL-27 R/B 2.2 17:07:54 10° NNW 17:11:14 73° ENE 17:14:35 10° SSE
USA 234 4.1 17:08:13 17° ENE 17:12:19 31° SE 17:18:00 10° S
Cosmos 44 Rocket 3.7 17:07:58 10° NNW 17:12:35 42° NE 17:16:17 15° ESE
ERS-2 2.1 17:09:14 10° SSE 17:12:50 56° ENE 17:16:28 10° N
Cosmos 405 Rocket 4.2 17:10:42 10° SE 17:12:32 18° ESE 17:12:32 18° ESE
Cosmos 540 Rocket 3.5 17:09:11 10° NNW 17:14:17 56° ENE 17:19:22 10° SE
Lacrosse 5 3.2 17:12:55 10° WNW 17:17:22 30° NNW 17:20:31 16° NE
Cosmos 2221 Rocket 4.1 17:14:33 10° SSE 17:18:36 37° E 17:21:48 15° NNE
Ariane Rocket 3.8 17:13:43 10° S 17:18:42 55° W 17:23:42 10° NNW
Cosmos 1844 Rocket 3.8 17:13:54 10° SW 17:19:14 42° NW 17:24:35 10° NNE
CZ-2C R/B 3.6 17:15:10 10° NNE 17:19:40 77° ESE 17:24:12 10° S
MTI 3.9 17:18:36 24° NE 17:20:15 48° E 17:23:23 10° S
Cosmos 841 Rocket 3.9 17:17:51 10° NNW 17:23:07 69° WSW 17:28:20 10° S
Cosmos 292 Rocket 4.1 17:18:40 10° N 17:23:12 42° ENE 17:27:43 10° SE
Cosmos 1703 Rocket 3.5 17:19:22 10° S 17:23:48 66° E 17:28:13 10° NNE
Cosmos 836 Rocket 4.4 17:19:11 10° NNW 17:24:25 66° ENE 17:29:39 10° SSE
Meteor 1-10 Rocket 4.4 17:23:30 10° SSE 17:28:59 52° E 17:34:36 10° NNE
Intercosmos 25 4.4 17:21:24 10° S 17:29:18 69° E 17:34:05 10° NNE
Okean 2 Rocket 3.2 17:30:17 10° N 17:34:45 55° ENE 17:39:11 10° SSE
Cosmos 1486 Rocket 4.0 17:30:38 10° SSW 17:35:51 83° WNW 17:40:54 11° NNE
FENGYUN 3A 3.6 17:31:26 10° SSE 17:36:45 62° ENE 17:42:06 10° N
Cosmos 1633 2.6 17:33:12 10° NNW 17:36:53 80° W 17:40:33 10° S
MONITOR-E 4.0 17:34:19 10° SSE 17:37:22 85° ENE 17:40:26 10° N
Cosmos 1464 Rocket 3.9 17:34:15 10° S 17:40:17 64° E 17:46:23 10° NNE
Cosmos 44 3.1 17:36:38 10° NNW 17:41:17 72° NE 17:44:23 22° SE
Cosmos 1833 Rocket 2.7 17:39:33 10° NNW 17:45:13 84° WSW 17:50:51 10° SSE
BREEZE-M DEB (TANK) 3.0 17:43:56 10° W 17:46:18 63° N 17:46:38 57° NNE
SKYMED 2 3.4 17:43:32 14° NNE 17:47:14 83° ESE 17:51:35 10° SSW
BREEZE-M DEB (TANK) 2.2 17:48:28 10° WNW 17:50:24 69° SW 17:50:24 69° SW
Cosmos 2297 3.7 17:45:48 10° SSW 17:51:27 65° ESE 17:54:15 31° NE
Cosmos 1354 Rocket 3.9 17:47:51 10° SSW 17:53:06 75° ESE 17:55:56 28° NNE
Cosmos 783 Rocket 4.5 17:49:43 10° NNW 17:55:02 63° ENE 17:57:58 26° SE
SPOT 3 Rocket 3.6 17:49:54 10° SSE 17:55:07 81° WSW 18:00:23 10° NNW
ALOS 2.2 17:50:59 10° SSE 17:55:40 89° W 18:00:22 10° NNW
Meteor 1-11 Rocket 3.7 17:50:17 10° N 17:56:09 66° ENE 18:01:52 10° SSE
CENTAUR R/B 3.7 17:50:15 10° WSW 17:56:12 40° NW 18:01:24 16° NNE
Cosmos 2278 Rocket 2.8 17:50:40 10° SW 17:56:13 55° WNW 18:01:01 14° NNE
BREEZE-M DEB (TANK) 3.5 17:57:35 10° SW 17:58:53 32° SSW 17:58:53 32° SSW
COSMOS 2455 4.0 18:00:09 10° WSW 18:05:45 38° NW 18:10:10 16° NNE
Meteor 2-20 Rocket 4.3 18:00:42 10° N 18:06:48 66° ENE 18:12:49 10° SSE
CZ-4 R/B 4.1 18:06:38 10° SW 18:09:26 19° W 18:12:14 10° NW
Cosmos 1606 4.3 18:12:47 10° SW 18:16:15 34° WNW 18:18:43 17° NNW
Okean 1-7 3.9 18:12:34 10° SSW 18:16:49 50° WNW 18:20:16 15° N
CZ-4C R/B 2.8 18:13:20 10° NW 18:20:24 84° NE 18:24:01 36° SE
EO 1 Del DPAF 4.4 18:19:24 29° NNW 18:20:48 41° WNW 18:24:24 10° SW
Cosmos 2082 Rocket 3.6 18:27:54 10° NW 18:33:05 37° WSW 18:38:14 10° S
COSMO-SKYMED 1 4.2 18:32:11 15° N 18:35:10 33° WNW 18:39:03 10° SW
ATLAS 3B R/B 4.3 18:40:43 10° NW 18:45:29 19° N 18:46:08 19° N
Nadezhda 4 Rocket 4.4 18:44:07 10° NNW 18:50:08 59° W 18:56:06 10° S
USA 234 3.1 18:55:35 84° NNE 18:55:48 86° NNW 19:02:21 10° WSW
Timation 2 Rocket 4.4 18:51:29 10° NW 18:58:11 62° WSW 19:00:00 46° SSW
Lacrosse 5 3.8 18:57:14 10° NW 18:59:43 22° NNW 18:59:43 22° NNW
Cosmos 1092 Rocket 4.3 19:01:06 10° NNW 19:07:10 63° W 19:07:23 63° WSW
CZ-4C R/B 4.5 20:02:40 10° WNW 20:08:33 27° WSW 20:09:18 26° WSW
